[[{"header":{"parameterUnit":"m.s-1","parameterCategory":1,"la1":30.2991,"la2":30.254,"lo1":-89.0895,"lo2":-89.0444,"dy":0.0017,"dx":0.0017,"nx":28,"ny":28,"refTime":"2023-03-27T15:00:00:Z","depth":0,"parameterNumber":2,"parameterNumberName":"U-component_of_WINDS"},"data":[0,0,0,0,0,0,0,0,0,0,0,0,0,0,0,0,0,0,0,0,0,0,0,0,0,0,0,0,0,0,0,0,0,0,0,0,0,0,0,0,0,0,0,0,0,0,0,0,0,0,0,0,0,0,0,0,0,0,-0.9386,-0.9385,0,-0.9335,-0.9335,-0.9334,-0.9317,-0.9317,-0.9318,-0.9318,-0.926,-0.9259,-0.9257,0,0,0,0,0,0,0,0,0,0,0,0,0,-0.9463,-0.9462,-0.9386,-0.9385,-0.9384,-0.9335,-0.9334,-0.9334,-0.9317,-0.9317,-0.9318,-0.9318,-0.9261,-0.9259,-0.9257,0,0,0,0,0,0,0,0,0,0,0,0,0,-0.9422,-0.9461,-0.9386,-0.937,-0.9368,-0.9335,-0.9334,-0.9334,-0.9317,-0.9317,-0.9318,-0.9318,-0.9262,-0.9259,-0.9257,-0.9233,0,0,-0.9249,-0.9247,0,0,0,0,0,0,0,0,-0.9425,-0.942,-0.9373,-0.9371,-0.9369,-0.9333,-0.9341,-0.93,-0.9317,-0.9336,-0.9318,-0.9318,-0.9284,-0.9279,-0.9269,-0.9231,-0.9228,-0.9248,-0.9247,-0.9246,-0.9245,0,0,0,0,0,0,0,-0.9428,-0.9422,-0.9365,-0.9373,-0.937,-0.9364,-0.9359,-0.9333,-0.9309,-0.9335,-0.9333,-0.9328,-0.9283,-0.9272,-0.9268,-0.9227,-0.9248,-0.9246,-0.9244,-0.9243,-0.9167,-0.9167,0,0,0,0,0,0,-0.9434,-0.9424,-0.9367,-0.9364,-0.9399,-0.9363,-0.9357,-0.9344,-0.9309,-0.9304,-0.9328,-0.9327,-0.9276,-0.9271,-0.9265,-0.9236,-0.9246,-0.9243,-0.9242,-0.9168,-0.9167,-0.9167,0,0,0,0,0,0,-0.9436,-0.9429,-0.9369,-0.9394,-0.9386,-0.9361,-0.9347,-0.9343,-0.9332,-0.9304,-0.9299,-0.9321,-0.9276,-0.9269,-0.9242,-0.9234,-0.9242,-0.924,-0.9168,-0.9168,-0.9167,-0.9177,0,0,0,0,0,0,-0.9438,-0.943,-0.9422,-0.9394,-0.9385,-0.9348,-0.9347,-0.9342,-0.9328,-0.9327,-0.9296,-0.9291,-0.9276,-0.9246,-0.9239,-0.923,-0.9238,-0.9169,-0.9168,-0.9167,-0.9177,-0.9177,-0.9176,0,0,0,0,0,-0.9441,-0.9425,-0.9421,-0.9415,-0.9374,-0.9348,-0.9342,-0.9326,-0.9327,-0.9318,-0.93,-0.9292,-0.9236,-0.9243,-0.9236,-0.9226,-0.9169,-0.9168,-0.9167,-0.9177,-0.9177,-0.9176,0,0,0,0,0,0,-0.9451,-0.9421,-0.9417,-0.9392,-0.9373,-0.9345,-0.9333,-0.9326,-0.9304,-0.9304,-0.9283,-0.9277,-0.9251,-0.9235,-0.9244,-0.9201,-0.9202,-0.9199,-0.9212,-0.9211,-0.9211,-0.9215,-0.9235,0,0,0,0,0,-0.9451,-0.9433,-0.9408,-0.9388,-0.9379,-0.9358,-0.9346,-0.9335,-0.9313,-0.9304,-0.9284,-0.9262,-0.9239,-0.9225,-0.9202,-0.9175,-0.9168,-0.9164,-0.9164,-0.9164,-0.9161,-0.9146,-0.9144,-0.9163,-0.9163,-0.9163,0,0,-0.9449,-0.9431,-0.9421,-0.939,-0.9374,-0.9354,-0.9351,-0.9331,-0.9316,-0.9301,-0.9274,-0.9259,-0.9232,-0.9205,-0.9192,-0.9192,-0.9155,-0.9163,-0.9163,-0.916,-0.9144,-0.9143,-0.9141,-0.9163,-0.9163,-0.9163,0,0,-0.9437,-0.9422,-0.9405,-0.9389,-0.9365,-0.9351,-0.9347,-0.932,-0.931,-0.9283,-0.9272,-0.9253,-0.9214,-0.9196,-0.9182,-0.9163,-0.9154,-0.9156,-0.9153,-0.9138,-0.9137,-0.9135,-0.9128,-0.9126,-0.9154,-0.9154,-0.9154,0,-0.9438,-0.941,-0.9396,-0.9376,-0.9363,-0.9351,-0.9332,-0.9317,-0.9286,-0.9276,-0.9276,-0.9228,-0.9209,-0.9178,-0.9173,-0.9162,-0.9156,-0.9159,-0.9138,-0.9137,-0.9135,-0.9128,-0.9125,-0.9155,-0.9155,-0.9155,-0.9155,0,-0.9412,-0.9393,-0.9381,-0.9354,-0.9339,-0.932,-0.9301,-0.9288,-0.9279,-0.9264,-0.9237,-0.9215,-0.9187,-0.9179,-0.9169,-0.9146,-0.9146,-0.9143,-0.9143,-0.9134,-0.9127,-0.9124,-0.9155,-0.9155,-0.9155,-0.9155,0,0,-0.9404,-0.937,-0.9366,-0.9354,-0.9327,-0.9311,-0.929,-0.9266,-0.9254,-0.9233,-0.9215,-0.9183,-0.918,-0.9164,-0.9152,-0.9139,-0.9125,-0.9137,-0.9136,-0.9135,-0.9097,-0.9099,-0.9097,-0.912,-0.9119,-0.9119,-0.9099,0,-0.9388,-0.9354,-0.934,-0.9312,-0.9293,-0.9282,-0.9264,-0.9245,-0.9231,-0.9212,-0.9196,-0.9173,-0.9171,-0.9161,-0.9148,-0.913,-0.9117,-0.9131,-0.9101,-0.91,-0.9107,-0.9093,-0.9095,-0.9078,-0.9096,-0.9096,-0.9095,0,-0.9365,-0.9346,-0.9316,-0.9291,-0.9283,-0.9268,-0.9244,-0.9227,-0.9204,-0.9195,-0.9177,-0.9166,-0.9143,-0.9146,-0.9113,-0.9123,-0.911,-0.9099,-0.9098,-0.9094,-0.9097,-0.9088,-0.9072,-0.9069,-0.9091,-0.9091,-0.9092,0,-0.9361,-0.9328,-0.9306,-0.9296,-0.9267,-0.9256,-0.9243,-0.9221,-0.9207,-0.9186,-0.9176,-0.9152,-0.9138,-0.9119,-0.9101,-0.9105,-0.907,-0.9071,-0.906,-0.9061,-0.9053,-0.9053,-0.9034,-0.9046,-0.9046,-0.9046,-0.9046,0,-0.9344,-0.9326,-0.9304,-0.929,-0.9269,-0.9254,-0.9233,-0.9219,-0.92,-0.9182,-0.917,-0.9153,-0.9131,-0.9111,-0.9097,-0.9071,-0.9065,-0.9056,-0.9052,-0.9057,-0.9058,-0.9047,-0.9048,-0.9045,-0.9045,-0.9045,-0.9046,0,-0.9337,-0.9321,-0.9296,-0.9272,-0.9265,-0.9251,-0.9228,-0.9214,-0.92,-0.9178,-0.9171,-0.9149,-0.9124,-0.9105,-0.9073,-0.9064,-0.9037,-0.9033,-0.9045,-0.9043,-0.9033,-0.9034,-0.9006,-0.9001,-0.9017,-0.9016,-0.9016,0,-0.9327,-0.9313,-0.9287,-0.9275,-0.9263,-0.9244,-0.923,-0.9214,-0.92,-0.9173,-0.9162,-0.9137,-0.9117,-0.9078,-0.9058,-0.9033,-0.9028,-0.902,-0.9024,-0.9029,-0.9027,-0.9028,-0.9026,-0.9019,-0.9019,-0.9019,-0.9019,0,-0.931,-0.9304,-0.9285,-0.9264,-0.9248,-0.923,-0.9212,-0.9203,-0.9183,-0.9167,-0.9143,-0.9128,-0.9096,-0.9071,-0.9044,-0.9029,-0.902,-0.9018,-0.9014,-0.9018,-0.9025,-0.9021,-0.9043,-0.9018,-0.9018,-0.9018,-0.9018,-0.9018,-0.93,-0.9288,-0.9268,-0.9248,-0.9233,-0.9216,-0.9201,-0.9186,-0.9167,-0.9141,-0.9132,-0.9107,-0.9084,-0.9048,-0.9033,-0.9012,-0.9011,-0.9006,-0.9004,-0.9003,-0.9003,-0.903,-0.9007,-0.9007,-0.9007,-0.9007,-0.9007,0,-0.9283,-0.927,-0.9252,-0.9227,-0.9211,-0.9206,-0.9186,-0.9172,-0.9151,-0.9132,-0.9112,-0.9085,-0.9061,-0.9039,-0.9014,-0.9001,-0.8996,-0.8995,-0.8995,-0.8992,-0.9006,-0.9011,-0.8999,-0.8999,-0.9,-0.9,-0.9,-0.9,-0.9272,-0.925,-0.9241,-0.9211,-0.9197,-0.9175,-0.9163,-0.9147,-0.9132,-0.9102,-0.9083,-0.907,-0.9049,-0.9022,-0.9,-0.8994,-0.8984,-0.8984,-0.8977,-0.899,-0.8991,-0.8992,-0.8997,-0.8983,-0.8983,-0.8965,-0.8965,-0.8965]},{"header":{"parameterUnit":"m.s-1","parameterCategory":1,"la1":30.2991,"la2":30.254,"lo1":-89.0895,"lo2":-89.0444,"dy":0.0017,"dx":0.0017,"nx":28,"ny":28,"refTime":"2023-03-27T15:00:00:Z","depth":0,"parameterNumber":3,"parameterNumberName":"V-component_of_WINDS"},"data":[0,0,0,0,0,0,0,0,0,0,0,0,0,0,0,0,0,0,0,0,0,0,0,0,0,0,0,0,0,0,0,0,0,0,0,0,0,0,0,0,0,0,0,0,0,0,0,0,0,0,0,0,0,0,0,0,0,0,2.4357,2.4358,0,2.4513,2.4515,2.4517,2.4541,2.454,2.4539,2.4537,2.4701,2.4707,2.4712,0,0,0,0,0,0,0,0,0,0,0,0,0,2.4081,2.4086,2.4356,2.4358,2.436,2.4513,2.4515,2.4517,2.4542,2.454,2.4538,2.4537,2.4699,2.4706,2.4713,0,0,0,0,0,0,0,0,0,0,0,0,0,2.4216,2.4088,2.4356,2.4391,2.4395,2.4513,2.4515,2.4518,2.4542,2.454,2.4538,2.4536,2.4697,2.4705,2.4714,2.4808,0,0,2.474,2.4743,0,0,0,0,0,0,0,0,2.4208,2.4226,2.4384,2.4389,2.4394,2.4506,2.4478,2.4615,2.4543,2.4486,2.4537,2.4535,2.4638,2.4651,2.4685,2.4816,2.4823,2.4741,2.4746,2.4749,2.4752,0,0,0,0,0,0,0,2.4199,2.4219,2.4419,2.4386,2.4392,2.44,2.4416,2.4504,2.4572,2.4491,2.4493,2.4511,2.464,2.4677,2.4689,2.4825,2.474,2.4748,2.4753,2.4756,2.5044,2.5046,0,0,0,0,0,0,2.4183,2.4211,2.4414,2.4423,2.4294,2.4406,2.4425,2.4472,2.4571,2.4584,2.4513,2.4512,2.4664,2.4679,2.4695,2.4815,2.4749,2.4757,2.4762,2.5042,2.5045,2.5047,0,0,0,0,0,0,2.4177,2.42,2.4407,2.4318,2.4345,2.4413,2.4466,2.4476,2.4513,2.4588,2.46,2.4538,2.4663,2.4683,2.478,2.4821,2.4761,2.4769,2.5039,2.5042,2.5046,2.5054,0,0,0,0,0,0,2.4168,2.4198,2.4234,2.4318,2.4349,2.4489,2.4468,2.4481,2.4527,2.4527,2.4614,2.4627,2.4663,2.4768,2.4789,2.4832,2.4775,2.5035,2.504,2.5045,2.5051,2.5058,2.5064,0,0,0,0,0,2.4159,2.423,2.4236,2.426,2.4396,2.4491,2.4509,2.4548,2.453,2.4568,2.4616,2.4624,2.4812,2.4777,2.4801,2.4848,2.5033,2.5039,2.5044,2.5048,2.5056,2.5064,0,0,0,0,0,0,2.415,2.4242,2.4249,2.435,2.4412,2.4495,2.4544,2.4555,2.4625,2.4622,2.4668,2.4687,2.4783,2.4824,2.4784,2.4945,2.4921,2.4932,2.4916,2.4924,2.4931,2.4921,2.4783,0,0,0,0,0,2.4159,2.4228,2.4305,2.4387,2.4418,2.4475,2.4518,2.4542,2.4609,2.4636,2.4692,2.4757,2.4832,2.488,2.4952,2.5055,2.5076,2.5099,2.5105,2.511,2.5121,2.5181,2.5193,2.5066,2.5066,2.5066,0,0,2.4181,2.4239,2.428,2.4387,2.4438,2.451,2.4497,2.4573,2.4628,2.4648,2.4744,2.4786,2.4863,2.4964,2.5012,2.5002,2.516,2.5118,2.5121,2.5129,2.5188,2.52,2.5211,2.507,2.5069,2.5069,0,0,2.4257,2.4307,2.4382,2.4433,2.451,2.4548,2.4565,2.4647,2.4676,2.4772,2.4789,2.4854,2.498,2.5035,2.5079,2.5175,2.5187,2.5197,2.5233,2.5292,2.5302,2.5311,2.5349,2.5361,2.5206,2.5206,2.5206,0,2.4274,2.4382,2.4419,2.4495,2.4542,2.4562,2.4639,2.4687,2.4785,2.4818,2.4804,2.4964,2.5017,2.5132,2.5156,2.5189,2.5213,2.5189,2.5297,2.5307,2.5316,2.5352,2.5366,2.5207,2.5207,2.5207,2.5207,0,2.4401,2.4475,2.4527,2.462,2.4672,2.4748,2.4798,2.4847,2.4866,2.4905,2.5004,2.5067,2.5154,2.5182,2.5201,2.5301,2.5293,2.5287,2.5265,2.5328,2.5364,2.5378,2.5209,2.5208,2.5208,2.5208,0,0,2.4479,2.4591,2.4609,2.4653,2.4739,2.4798,2.4875,2.4959,2.5001,2.5067,2.5135,2.5241,2.5237,2.5287,2.5312,2.5363,2.5439,2.5352,2.5354,2.5369,2.5556,2.5563,2.5578,2.5445,2.5447,2.545,2.5551,0,2.4568,2.4707,2.4742,2.486,2.4931,2.495,2.5018,2.5079,2.5117,2.5184,2.5226,2.5302,2.5289,2.532,2.537,2.5419,2.5478,2.5411,2.5512,2.5515,2.5496,2.5596,2.5603,2.5696,2.5565,2.5567,2.5569,0,2.4692,2.476,2.4885,2.4964,2.4995,2.5055,2.5135,2.5197,2.5267,2.5292,2.5347,2.5368,2.5451,2.5421,2.5537,2.5491,2.5534,2.5563,2.5568,2.5582,2.5548,2.5617,2.5726,2.5741,2.559,2.5588,2.5587,0,2.4741,2.4863,2.4955,2.4991,2.5084,2.5126,2.5167,2.5234,2.5283,2.5353,2.5385,2.5463,2.5507,2.5568,2.561,2.5584,2.5724,2.5697,2.575,2.5749,2.5782,2.578,2.5903,2.5802,2.5802,2.5802,2.5801,0,2.4839,2.4916,2.4979,2.5036,2.5123,2.5162,2.5247,2.5289,2.5349,2.5415,2.5435,2.5497,2.5547,2.5616,2.5648,2.5742,2.576,2.5785,2.5793,2.5785,2.5783,2.5817,2.5813,2.5805,2.5804,2.5804,2.5803,0,2.4911,2.4955,2.5057,2.5136,2.5157,2.5219,2.5287,2.5344,2.5381,2.5465,2.5487,2.5547,2.563,2.5676,2.578,2.5802,2.5907,2.5911,2.5884,2.5889,2.594,2.5936,2.6093,2.6117,2.5996,2.5997,2.5998,0,2.4973,2.5032,2.5117,2.5163,2.5204,2.5277,2.5326,2.5366,2.5417,2.5502,2.5549,2.5632,2.5701,2.5832,2.5887,2.5966,2.5974,2.6024,2.5987,2.5978,2.598,2.5978,2.5985,2.6032,2.6033,2.6034,2.6034,0,2.5079,2.5098,2.5168,2.5246,2.5304,2.5368,2.5431,2.5467,2.5518,2.5574,2.5658,2.5712,2.5817,2.5901,2.5985,2.6029,2.6042,2.6045,2.6062,2.6057,2.6041,2.6054,2.5906,2.6042,2.6041,2.6041,2.604,2.604,2.5151,2.5206,2.5274,2.5352,2.5403,2.5462,2.5519,2.5564,2.5635,2.5724,2.5743,2.5832,2.5902,2.6016,2.6061,2.6133,2.6124,2.6148,2.6155,2.6161,2.6165,2.6025,2.6148,2.6148,2.6148,2.6147,2.6147,0,2.5262,2.5306,2.5377,2.5465,2.5526,2.5529,2.5599,2.5651,2.573,2.5792,2.586,2.5958,2.6039,2.6098,2.6182,2.6228,2.6236,2.6249,2.6248,2.6259,2.6166,2.6145,2.6241,2.6241,2.6241,2.6241,2.6241,2.6241,2.5327,2.5421,2.5448,2.5568,2.5612,2.57,2.574,2.5795,2.5845,2.5953,2.602,2.6058,2.6121,2.6208,2.6284,2.6299,2.6331,2.6344,2.636,2.6274,2.6265,2.6255,2.6236,2.6349,2.6349,2.6447,2.6448,2.6449]}]]